User: anonymous   Login
Location: Campillo
(40.8621°N, 4.2488°W)
Time: 13:19:26
(UTC+00:00)
Language:

Cosmos 1898 Rocket - Orbit

View from above orbital plane
View from above orbital plane
View from above satellite
View from above satellite

Ground track
Ground track

The orbit data is extracted from the following two-line orbital elements,

1 18586U 87098B   21211.79496071  .00000079  00000-0  35359-4 0  9995
2 18586  74.0062  44.3662 0020101 106.1308 254.2060 14.36962178763155
Epoch (UTC): 30 July 2021 19:04:44
Eccentricity: 0.0020101
inclination: 74.0062°
perigee height: 754 km
apogee height: 783 km
right ascension of ascending node: 44.3662°
argument of perigee: 106.1308°
revolutions per day: 14.36962178
mean anomaly at epoch: 254.2060°
orbit number at epoch: 76315

The dashed part of the orbit path shows where the satellite is in the earth's shadow,  

DLR